Location: Blanot
(47.1713°N, 4.2340°E)
Time: 21:07:12
(UTC+00:00)

Meteor 1-18 Rocket - Pass Details

Date: 14 July 2020
Orbit: 836 x 909 km, 81.2° (Epoch: 14 August)

Event Time Altitude Azimuth Distance (km) Brightness Sun altitude
Rises 01:01:46 0° 347° (NNW) 3,520 8.4 -19.3°
Reaches altitude 10° 01:04:15 10° 345° (NNW) 2,566 7.5 -19.1°
Maximum altitude 01:10:04 74° 262° (W) 914 4.2 -18.8°
Enters shadow 01:12:52 31° 184° (S) 1,470 4.9 -18.6°
